Stations météo

Publicité
Amberieu, France (7482): Température de l'air & dewpoint: 13.03.2019 15:00:00 - 19.03.2019 15:00:00 (CET)Amberieu, France (7482): Température de l'air 5cm: 13.03.2019 15:00:00 - 19.03.2019 15:00:00 (CET)Amberieu, France (7482): Température de l'air -20cm & Température de l'air -100cm: 13.03.2019 15:00:00 - 19.03.2019 15:00:00 (CET)Amberieu, France (7482): Vitesse du vent & gusts: 13.03.2019 15:00:00 - 19.03.2019 15:00:00 (CET)Amberieu, France (7482): Direction du vent: 13.03.2019 15:00:00 - 19.03.2019 15:00:00 (CET)Amberieu, France (7482): reduced air pressure: 13.03.2019 15:00:00 - 19.03.2019 15:00:00 (CET)Amberieu, France (7482): visibility: 13.03.2019 15:00:00 - 19.03.2019 15:00:00 (CET)Amberieu, France (7482): Ensoleillement: 13.03.2019 15:00:00 - 19.03.2019 15:00:00 (CET)Amberieu, France (7482): Quantités de précipitations: 13.03.2019 15:00:00 - 19.03.2019 15:00:00 (CET)
Date & Time tt [°C] td [°C] tt 5cm [°C] tt -20cm [°C] tt -100cm [°C] ff [km/h] ff [knt] fx [km/h] fx [knt] dd ppp [hPa] vv [km] sd [min] rr [mm]
19.03.2019 15:00:00 10,0 1,1 11,9 8,8 9,2 24 13 44 24 N 1025,8 20 19 0,0
19.03.2019 14:00:00 10,7 2,3 13,1 8,7 9,2 30 16 44 24 N 1025,9 20 43 0,0
19.03.2019 13:00:00 10,9 2,5 17,7 8,8 9,2 25 14 40 22 N 1025,9 20 60 0,0
19.03.2019 12:00:00 10,0 2,8 15,7 8,9 9,2 22 12 33 18 N 1026,0 20 60 0,0
19.03.2019 11:00:00 8,0 3,5 13,3 8,8 9,2 15 8 23 12 NNW 1026,6 20 60 0,0
19.03.2019 10:00:00 4,7 2,4 9,1 8,9 9,2 10 5 16 9 N 1027,1 20 60 0,0
19.03.2019 09:00:00 2,5 1,5 1,8 8,9 9,2 9 5 18 10 N 1027,1 19 53 0,0
19.03.2019 08:00:00 0,5 0,2 -2,0 9,0 9,2 9 5 14 8 N 1026,8 6 24 0,0
19.03.2019 07:00:00 -0,8 -1,2 -2,0 9,0 9,2 10 6 18 10 NNE 1026,4 18 0 0,0
19.03.2019 06:00:00 -0,7 -1,4 -1,9 9,1 9,2 11 6 18 10 NNE 1025,6 20 0 0,0
19.03.2019 05:00:00 -0,2 -0,8 -1,9 9,1 9,2 14 7 17 9 NNE 1025,6 20 0 0,0
19.03.2019 04:00:00 -0,2 -0,8 -1,8 9,1 9,2 10 6 15 8 NNE 1025,4 20 0 0,0
19.03.2019 03:00:00 0,2 -0,5 -3,1 9,1 9,2 11 6 16 9 N 1025,1 20 0 0,0
19.03.2019 02:00:00 0,1 -0,6 -1,5 9,1 9,2 7 4 14 8 NE 1025,2 20 0 0,0
19.03.2019 01:00:00 0,5 -0,2 -2,4 9,2 9,2 8 4 10 5 NNE 1025,4 20 0 0,0
19.03.2019 00:00:00 0,9 -0,4 -1,7 9,1 9,2 4 2 8 4 NNE 1025,5 20 0 0,0
18.03.2019 23:00:00 1,9 0,9 0,2 9,2 9,2 6 4 9 5 NE 1025,4 20 0 0,0
18.03.2019 22:00:00 2,6 1,4 -0,7 9,2 9,2 6 3 7 4 NE 1025,5 20 0 0,0
18.03.2019 21:00:00 4,3 2,5 1,4 9,1 9,2 5 3 9 5 E 1025,2 20 0 0,0
18.03.2019 20:00:00 4,6 2,1 2,0 9,1 9,2 3 1 10 5 W 1024,7 20 0 0,0
18.03.2019 19:00:00 6,1 2,4 5,6 9,1 9,2 5 3 9 5 ESE 1024,3 20 0 0,0
18.03.2019 18:00:00 6,8 2,5 6,7 9,0 9,2 8 4 37 20 ENE 1024,0 20 20 0,0
18.03.2019 17:00:00 8,5 3,1 6,3 9,0 9,2 4 2 16 9 SSE 1023,4 20 22 0,0
18.03.2019 16:00:00 6,1 3,1 4,1 9,1 9,2 6 3 31 17 E 1023,8 20 3 1,0
18.03.2019 15:00:00 8,5 1,4 13,0 9,1 9,2 15 8 27 14 NNW 1023,4 20 25 0,0
18.03.2019 14:00:00 9,5 2,8 9,8 9,1 9,2 14 7 23 13 NNW 1023,5 20 38 0,0
18.03.2019 13:00:00 6,4 2,7 7,1 9,0 9,2 8 4 23 12 NW 1024,6 20 0 0,2
18.03.2019 12:00:00 7,4 1,7 10,9 9,1 9,2 10 5 21 11 N 1024,4 20 5 0,0
18.03.2019 11:00:00 6,7 1,6 7,4 9,2 9,1 12 6 23 12 NW 1024,4 20 28 0,0
18.03.2019 10:00:00 6,7 2,2 10,7 9,1 9,2 14 8 22 12 N 1024,2 20 60 0,0
18.03.2019 09:00:00 5,5 2,3 4,0 9,2 9,1 13 7 20 11 NNE 1023,9 20 60 0,0
18.03.2019 08:00:00 3,0 1,7 2,0 9,2 9,1 8 4 14 7 NNE 1023,8 20 1 0,0
18.03.2019 07:00:00 3,0 2,0 2,1 9,3 9,1 5 3 8 4 NE 1023,2 20 0 0,0
18.03.2019 06:00:00 3,3 2,4 2,7 9,3 9,1 5 3 32 17 NE 1022,7 20 0 0,2
18.03.2019 05:00:00 3,7 2,7 2,9 9,3 9,1 8 4 16 9 WNW 1021,9 16 0 0,0
18.03.2019 04:00:00 2,9 2,3 2,2 9,4 9,1 0 0 7 4 N 1021,6 14 0 0,0
18.03.2019 03:00:00 2,9 2,2 -0,6 9,4 9,1 3 2 14 8 SSE 1021,2 20 0 0,0
18.03.2019 02:00:00 2,5 1,6 0,4 9,4 9,1 6 3 15 8 S 1021,4 20 0 0,0
18.03.2019 01:00:00 3,5 2,2 1,4 9,5 9,1 6 3 11 6 SE 1021,4 20 0 0,0
18.03.2019 00:00:00 4,4 3,2 2,7 9,4 9,1 4 2 9 5 ESE 1021,3 20 0 0,0
17.03.2019 23:00:00 4,3 3,0 2,9 9,4 9,1 6 3 14 8 N 1021,2 20 0 0,4
17.03.2019 22:00:00 4,5 3,3 2,5 9,4 9,1 7 4 18 10 SSW 1020,8 11 0 0,4
17.03.2019 21:00:00 4,0 2,7 2,6 9,4 9,1 6 3 19 11 SSE 1019,9 20 0 0,0
17.03.2019 20:00:00 4,8 3,1 3,6 9,4 9,1 10 5 21 11 S 1019,7 20 0 0,0
17.03.2019 19:00:00 5,7 3,4 3,9 9,4 9,1 7 4 17 9 SSW 1018,5 20 24 0,0
17.03.2019 18:00:00 7,1 3,7 7,3 9,3 9,1 8 4 16 9 SE 1017,4 20 23 0,0
17.03.2019 17:00:00 6,5 2,4 5,3 9,3 9,0 11 6 24 13 ENE 1017,1 20 0 0,6
17.03.2019 16:00:00 5,9 3,6 5,3 9,2 9,0 16 9 39 21 NNE 1017,5 13 0 1,6
17.03.2019 15:00:00 7,3 4,3 6,7 9,2 9,0 29 16 61 33 N 1016,4 20 0 0,0
17.03.2019 14:00:00 16,9 4,2 18,4 9,2 9,0 20 11 35 19 SW 1011,6 20 42 0,0
17.03.2019 13:00:00 16,8 3,5 18,8 9,2 9,0 13 7 23 12 SSW 1012,0 20 27 0,0
17.03.2019 12:00:00 15,8 3,9 18,3 9,2 9,0 12 7 24 13 S 1012,2 20 28 0,0
17.03.2019 11:00:00 14,9 5,4 16,6 9,3 9,0 19 10 30 16 SW 1012,7 20 21 0,0
17.03.2019 10:00:00 14,7 3,5 15,1 9,3 9,0 19 10 35 19 S 1011,7 20 19 0,0
17.03.2019 09:00:00 13,3 3,6 11,7 9,3 9,0 16 9 29 16 S 1011,2 20 2 0,0
17.03.2019 08:00:00 11,3 2,8 3,0 9,4 9,0 17 9 23 13 S 1010,6 20 40 0,0
17.03.2019 07:00:00 6,3 2,0 2,4 9,3 9,0 5 3 15 8 SW 1011,3 20 0 0,0
17.03.2019 06:00:00 8,1 2,3 5,0 9,3 9,0 10 6 26 14 SW 1011,0 20 0 0,0
17.03.2019 05:00:00 11,1 2,9 9,7 9,3 9,0 20 11 35 19 S 1011,2 20 0 0,0
17.03.2019 04:00:00 11,9 3,6 10,3 9,4 9,0 22 12 38 20 S 1011,5 20 0 0,0
17.03.2019 03:00:00 13,0 3,6 10,6 9,3 9,0 18 10 37 20 S 1012,0 20 0 0,0
17.03.2019 02:00:00 13,6 3,6 12,1 9,3 9,0 20 11 41 22 S 1012,6 20 0 0,0
17.03.2019 01:00:00 13,8 3,8 6,6 9,3 9,0 17 9 34 18 S 1012,6 20 0 0,0
17.03.2019 00:00:00 9,2 2,3 6,8 9,3 9,0 8 4 16 9 SSE 1013,7 20 0 0,0
16.03.2019 23:00:00 9,6 2,4 8,0 9,2 9,0 8 4 21 11 SSE 1013,8 20 0 0,0
16.03.2019 22:00:00 10,1 2,9 6,6 9,1 8,9 8 4 14 8 SE 1014,1 20 0 0,0
16.03.2019 21:00:00 10,5 3,5 6,1 9,1 9,0 6 3 11 6 SE 1014,3 20 0 0,0
16.03.2019 20:00:00 11,9 2,3 5,8 9,0 9,0 7 4 11 6 SSE 1014,4 20 0 0,0
16.03.2019 19:00:00 12,9 1,8 7,0 8,9 8,9 4 2 16 9 SSE 1014,8 20 15 0,0
16.03.2019 18:00:00 16,5 5,4 15,4 8,8 8,9 11 6 21 11 S 1015,0 20 53 0,0
16.03.2019 17:00:00 18,1 6,0 20,8 8,8 9,0 11 6 24 13 S 1015,5 20 60 0,0
16.03.2019 16:00:00 18,3 6,8 24,6 8,7 8,9 10 6 26 14 S 1016,3 20 60 0,0
16.03.2019 15:00:00 17,4 8,0 24,3 8,6 8,9 10 6 22 12 S 1017,2 20 60 0,0
16.03.2019 14:00:00 16,5 7,9 23,5 8,6 8,9 10 6 21 11 SW 1018,3 19 60 0,0
16.03.2019 13:00:00 16,1 9,0 22,3 8,6 8,9 11 6 19 10 SW 1019,6 20 60 0,0
16.03.2019 12:00:00 14,5 7,5 21,3 8,6 8,9 9 5 21 11 SSW 1020,5 20 60 0,0
16.03.2019 11:00:00 13,4 6,5 19,9 8,5 8,9 2 1 10 5 WSW 1021,3 20 60 0,0
16.03.2019 10:00:00 12,2 6,9 15,5 8,6 8,9 4 2 11 6 SSE 1022,1 20 60 0,0
16.03.2019 09:00:00 10,1 6,4 12,1 8,6 8,9 6 3 13 7 ESE 1022,7 20 60 0,0
16.03.2019 08:00:00 8,3 6,8 5,4 8,6 8,9 8 4 13 7 ESE 1023,2 20 38 0,0
16.03.2019 07:00:00 7,1 6,7 5,2 8,6 8,9 6 3 8 5 ESE 1023,4 20 0 0,0
16.03.2019 06:00:00 7,6 6,4 6,2 8,7 8,9 4 2 12 7 ENE 1023,6 20 0 0,0
16.03.2019 05:00:00 8,1 6,7 7,5 8,6 8,9 3 2 9 5 E 1023,5 20 0 0,2
16.03.2019 04:00:00 8,5 7,0 7,5 8,6 8,9 4 2 12 7 SSE 1023,7 20 0 0,0
16.03.2019 03:00:00 8,3 7,1 7,6 8,6 8,9 4 2 6 3 S 1024,2 20 0 0,0
16.03.2019 02:00:00 9,0 7,3 8,3 8,6 8,9 4 2 10 5 E 1024,6 20 0 0,0
16.03.2019 01:00:00 8,9 7,7 8,4 8,5 9,0 4 2 11 6 SE 1025,1 20 0 0,0
16.03.2019 00:00:00 9,0 7,6 8,7 8,6 8,9 7 4 15 8 SSE 1025,3 20 0 0,0
15.03.2019 23:00:00 9,1 7,7 8,3 8,5 8,9 5 3 12 6 SSE 1025,3 20 0 0,0
15.03.2019 22:00:00 9,5 7,6 8,6 8,5 9,0 4 2 13 7 SE 1025,2 20 0 0,0
15.03.2019 21:00:00 9,8 7,6 8,7 8,4 8,9 7 4 13 7 SE 1024,7 20 0 0,0
15.03.2019 20:00:00 10,3 6,8 9,1 8,4 8,9 6 3 16 8 W 1024,5 20 0 0,0
15.03.2019 19:00:00 10,8 9,7 9,9 8,3 8,9 2 1 7 4 SW 1024,0 20 0 0,0
15.03.2019 18:00:00 11,0 9,7 11,0 8,3 8,9 4 2 6 4 NNE 1023,1 18 0 0,0
15.03.2019 17:00:00 11,3 9,4 11,5 8,2 8,9 5 3 10 6 ENE 1022,5 20 0 0,4
15.03.2019 16:00:00 12,7 9,1 13,4 8,3 9,0 2 1 15 8 S 1022,1 19 0 0,0
15.03.2019 15:00:00 12,6 8,7 12,3 8,2 9,0 6 3 13 7 ESE 1022,2 20 1 0,0
15.03.2019 14:00:00 11,7 9,4 12,4 8,2 8,9 10 5 14 8 S 1022,8 20 0 0,0
15.03.2019 13:00:00 11,9 8,6 12,1 8,2 9,0 8 4 16 9 SE 1023,1 20 0 0,0
15.03.2019 12:00:00 10,8 9,4 12,2 8,2 9,0 12 7 19 10 S 1023,3 13 0 0,0
15.03.2019 11:00:00 9,9 9,3 9,5 8,2 9,0 8 4 17 9 S 1023,5 20 0 0,2
15.03.2019 10:00:00 9,0 8,4 8,9 8,1 9,0 8 4 16 9 S 1023,4 13 0 0,0
15.03.2019 09:00:00 8,6 8,0 8,7 8,2 9,0 9 5 17 9 S 1022,9 20 0 0,0
15.03.2019 08:00:00 8,3 7,9 7,8 8,2 9,0 10 5 17 9 S 1022,4 20 0 0,0
15.03.2019 07:00:00 7,6 7,3 7,7 8,2 9,0 10 5 22 12 S 1021,7 20 0 0,0
15.03.2019 06:00:00 7,6 7,5 7,7 8,2 9,0 8 5 18 10 S 1021,2 15 0 0,9
15.03.2019 05:00:00 7,5 7,4 7,4 8,3 9,0 9 5 25 14 S 1020,8 2,4 0 2,2
15.03.2019 04:00:00 7,4 7,1 7,3 8,2 9,0 15 8 21 11 S 1020,5 2,1 0 2,2
15.03.2019 03:00:00 7,3 7,0 7,0 8,3 9,0 10 6 21 12 S 1020,3 11 0 0,6
15.03.2019 02:00:00 6,9 6,6 6,9 8,3 9,0 11 6 19 11 S 1020,5 11 0 0,2
15.03.2019 01:00:00 6,7 6,6 5,8 8,4 9,0 8 4 12 7 S 1020,4 5 0 0,2
15.03.2019 00:00:00 5,6 5,3 5,4 8,3 9,0 5 3 11 6 SSE 1020,7 14 0 0,2
14.03.2019 23:00:00 5,1 4,7 5,4 8,4 9,0 6 4 13 7 SSE 1020,6 13 0 0,4
14.03.2019 22:00:00 5,3 4,9 5,2 8,4 9,0 9 5 16 9 SSE 1020,1 4,9 0 0,6
14.03.2019 21:00:00 5,5 4,8 4,8 8,4 9,0 6 4 21 12 SSW 1019,8 14 0 0,4
14.03.2019 20:00:00 4,9 4,0 4,7 8,4 9,0 9 5 23 13 SSE 1019,6 9 0 2,4
14.03.2019 19:00:00 5,1 3,8 4,9 8,4 9,0 11 6 33 18 S 1019,0 9 0 2,4
14.03.2019 18:00:00 5,3 3,9 4,9 8,4 9,0 14 8 40 22 SE 1018,9 7 0 3,7
14.03.2019 17:00:00 5,3 3,6 4,9 8,4 9,0 15 8 38 20 SSE 1018,4 8 0 1,8
14.03.2019 16:00:00 5,3 3,6 5,2 8,3 9,0 19 10 38 21 S 1019,1 16 0 1,2
14.03.2019 15:00:00 5,5 3,8 5,6 8,4 9,0 15 8 38 20 SSE 1019,9 8 0 1,4
14.03.2019 14:00:00 5,8 4,1 5,8 8,4 9,0 21 12 37 20 SSE 1021,0 15 0 0,8
14.03.2019 13:00:00 6,3 4,5 6,6 8,4 9,0 14 7 26 14 S 1022,6 15 0 0,6
14.03.2019 12:00:00 6,5 3,6 7,6 8,5 9,0 16 8 32 18 S 1023,2 14 0 0,0
14.03.2019 11:00:00 6,4 4,2 6,9 8,5 9,0 13 7 28 15 S 1023,6 20 0 0,0
14.03.2019 10:00:00 5,7 4,0 5,2 8,4 9,0 10 6 25 13 S 1024,1 20 0 0,4
14.03.2019 09:00:00 4,7 3,7 4,4 8,4 9,0 11 6 20 11 S 1024,5 16 0 0,8
14.03.2019 08:00:00 4,3 3,4 4,2 8,5 9,0 7 4 21 12 SSE 1024,3 6 0 1,6
14.03.2019 07:00:00 4,4 3,5 4,2 8,5 9,0 11 6 18 10 S 1024,1 3,9 0 1,0
14.03.2019 06:00:00 4,3 3,3 3,6 8,6 9,0 9 5 19 11 SSE 1024,2 20 0 0,4
14.03.2019 05:00:00 4,3 2,6 3,5 8,5 9,0 4 2 8 5 SSE 1024,1 20 0 0,0
14.03.2019 04:00:00 4,6 3,1 3,3 8,5 9,0 4 2 13 7 SSE 1024,4 20 0 0,0
14.03.2019 03:00:00 4,3 2,6 2,6 8,5 9,0 5 3 13 7 S 1024,4 20 0 0,0
14.03.2019 02:00:00 4,5 3,2 4,0 8,5 9,0 6 4 9 5 S 1024,4 20 0 0,0
14.03.2019 01:00:00 4,6 3,1 2,9 8,5 9,0 5 3 13 7 S 1024,0 20 0 0,0
14.03.2019 00:00:00 4,2 2,5 1,4 8,5 9,0 8 4 14 8 S 1023,5 20 0 0,0
13.03.2019 23:00:00 5,0 3,3 4,5 8,5 9,0 5 3 18 10 NW 1023,2 19 0 0,4
13.03.2019 22:00:00 5,1 2,9 3,7 8,5 9,0 4 2 14 8 SSE 1022,8 20 0 0,0
13.03.2019 21:00:00 5,6 2,9 4,9 8,5 9,0 7 4 22 12 S 1022,2 20 0 0,0
13.03.2019 20:00:00 6,0 2,5 5,4 8,5 9,0 16 9 26 14 S 1021,4 20 0 0,0
13.03.2019 19:00:00 6,6 2,5 5,9 8,4 9,0 7 4 14 7 S 1020,7 20 0 0,0
13.03.2019 18:00:00 7,2 2,9 7,3 8,4 9,0 9 5 16 9 S 1020,5 20 18 0,0
13.03.2019 17:00:00 8,3 3,1 9,0 8,4 9,0 8 4 19 10 S 1020,4 20 19 0,0
13.03.2019 16:00:00 7,9 2,4 5,6 8,4 9,0 5 3 22 12 SE 1020,3 20 30 0,2
13.03.2019 15:00:00 7,0 3,2 7,1 8,3 9,0 9 5 23 12 E 1020,2 20 28 0,0

tt = Température de l'air
td = dewpoint
tt 5cm = Température de l'air 5cm
tt -20cm = Température de l'air -20cm
tt -100cm = Température de l'air -100cm
ff = Vitesse du vent
fx = gusts
dd = Direction du vent
ppp = reduced air pressure
vv = visibility
sd = Ensoleillement
rr = Quantités de précipitations

stations d'obs. à proximité